GW4614 Weather Reports


Display with metric or nautical units.
time (UTC)temp
F
wind
direction
speed
MPH
gust
MPH
rain 1hr
in
rain 24hr
in
rain mn
in
humidity
%
barometer
mb
20260503174847 53 18 1.0 2.0 0.00 0.00 0.00 35 1017.1
20260503174345 54 143 7.0 8.0 0.00 0.00 0.00 37 1017.1
20260503173845 53 163 2.0 6.0 0.00 0.00 0.00 37 1017.2
20260503173342 52 296 4.0 4.0 0.00 0.00 0.00 38 1017.1
20260503172838 53 359 8.0 9.0 0.00 0.00 0.00 39 1017.2
20260503172336 52 42 5.0 8.0 0.00 0.00 0.00 37 1017.4
20260503171832 53 212 1.0 2.0 0.00 0.00 0.00 44 1017.4
20260503171329 53 212 1.0 2.0 0.00 0.00 0.00 44 1017.4
20260503170826 53 170 2.0 2.0 0.00 0.00 0.00 39 1017.5
20260503170323 52 214 4.0 7.0 0.00 0.00 0.00 42 1017.5
20260503150715 49 214 0.0 1.0 0.00 0.00 0.00 51 1018.5
20260503150211 48 298 6.0 9.0 0.00 0.00 0.00 48 1018.6
20260503140136 45 305 3.0 3.0 0.00 0.00 0.00 57 1018.6
20260503131105 43 189 2.0 2.0 0.00 0.00 0.00 61 1018.3
20260503130603 43 309 1.0 1.0 0.00 0.00 0.00 59 1018.4
20260503110453 36 59 0.0 0.0 0.00 0.00 0.00 71 1017.4
20260503090338 37 330 2.0 2.0 0.00 0.00 0.00 70 1016.0
20260503081306 37 27 5.0 8.0 0.00 0.00 0.00 70 1016.0
20260503080802 37 323 4.0 4.0 0.00 0.00 0.00 70 1015.9
20260503080259 37 19 2.0 6.0 0.00 0.00 0.00 70 1015.6
20260503072736 37 318 2.0 2.0 0.00 0.00 0.00 70 1015.4
20260503072233 37 318 2.0 4.0 0.00 0.00 0.00 70 1015.7
20260503071729 37 144 1.0 1.0 0.00 0.00 0.00 72 1015.5
20260503071226 37 317 2.0 2.0 0.00 0.00 0.00 73 1015.8
20260503070722 37 331 1.0 3.0 0.00 0.00 0.00 73 1015.7
20260503070221 37 316 0.0 1.0 0.00 0.00 0.00 73 1015.7
20260503060145 38 337 6.0 8.0 0.00 0.00 0.00 68 1015.4
20260503054632 38 0 2.0 2.0 0.00 0.00 0.00 69 1015.3
20260503054129 38 324 4.0 4.0 0.00 0.00 0.00 69 1015.3
20260503053627 38 340 3.0 3.0 0.00 0.00 0.00 69 1015.6
20260503053125 38 340 3.0 4.0 0.00 0.00 0.00 69 1015.5
20260503052621 0 0.0 0.0 0.00 0.00 0.00 1015.3
20260503052118 39 328 4.0 4.0 0.00 0.00 0.00 68 1015.4
20260503051613 39 328 4.0 4.0 0.00 0.00 0.00 68 1015.3
20260503051111 39 232 2.0 3.0 0.00 0.00 0.00 68 1015.3
20260503050607 39 281 0.0 0.0 0.00 0.00 0.00 68 1015.5
20260503050104 39 328 2.0 2.0 0.00 0.00 0.00 68 1015.7
20260503045601 40 31 5.0 6.0 0.00 0.00 0.00 67 1015.5
20260503045059 0 0.0 0.0 0.00 0.00 0.00 1015.5
20260503044555 0 0.0 0.0 0.00 0.00 0.00 1015.6
20260503044053 0 0.0 0.0 0.00 0.00 0.00 1015.6
20260503043549 40 43 8.0 11.0 0.00 0.00 0.00 66 1015.8
20260503043046 40 43 8.0 11.0 0.00 0.00 0.00 66 1015.6
20260503042542 40 5 4.0 7.0 0.00 0.00 0.00 67 1015.7
20260503042038 40 5 4.0 7.0 0.00 0.00 0.00 67 1015.6
20260503041535 40 46 0.0 1.0 0.00 0.00 0.00 68 1015.5
20260503041033 0 0.0 0.0 0.00 0.00 0.00 1015.5
20260503040530 41 266 3.0 3.0 0.00 0.00 0.00 68 1015.5
20260503040028 41 266 3.0 3.0 0.00 0.00 0.00 68 1015.6
20260503035524 41 310 5.0 7.0 0.00 0.00 0.00 67 1015.6
20260503035022 41 10 3.0 3.0 0.00 0.00 0.00 67 1015.6
20260503034519 41 297 6.0 8.0 0.00 0.00 0.00 66 1015.6
20260503034016 41 297 6.0 8.0 0.00 0.00 0.00 66 1015.5
20260503033513 42 19 4.0 6.0 0.00 0.00 0.00 65 1015.4
20260503033011 42 19 4.0 6.0 0.00 0.00 0.00 65 1015.5
20260503032509 41 292 5.0 8.0 0.00 0.00 0.00 66 1015.6
20260503032007 41 315 8.0 10.0 0.00 0.00 0.00 66 1015.5
20260503031505 41 341 7.0 10.0 0.00 0.00 0.00 67 1015.7
20260503031001 41 338 3.0 4.0 0.00 0.00 0.00 66 1015.4
20260503030457 41 300 4.0 4.0 0.00 0.00 0.00 65 1015.5
20260503025954 41 339 3.0 3.0 0.00 0.00 0.00 66 1015.5
20260503025451 42 340 4.0 6.0 0.00 0.00 0.00 66 1015.8
20260503024949 42 301 2.0 2.0 0.00 0.00 0.00 64 1015.4
20260503024445 42 307 1.0 2.0 0.00 0.00 0.00 65 1015.6
20260503023942 42 1 4.0 6.0 0.00 0.00 0.00 63 1015.6
20260503023439 0 0.0 0.0 0.00 0.00 0.00 1015.4
20260503022936 43 48 2.0 3.0 0.00 0.00 0.00 62 1015.4
20260503022431 43 48 2.0 3.0 0.00 0.00 0.00 62 1015.5
20260503021927 43 337 4.0 4.0 0.00 0.00 0.00 61 1015.5
20260503021423 0 0.0 0.0 0.00 0.00 0.00 1015.5
20260503020921 0 0.0 0.0 0.00 0.00 0.00 1015.2
20260503020419 0 0.0 0.0 0.00 0.00 0.00 1015.3
20260503015915 0 0.0 0.0 0.00 0.00 0.00 1015.3
20260503015412 0 0.0 0.0 0.00 0.00 0.00 1015.4
20260503014908 43 354 2.0 3.0 0.00 0.00 0.00 59 1015.3
20260503014405 43 354 2.0 3.0 0.00 0.00 0.00 59 1015.2
20260503013903 43 223 0.0 0.0 0.00 0.00 0.00 59 1015.1
20260503013400 44 297 0.0 2.0 0.00 0.00 0.00 57 1015.2
20260503012857 44 219 2.0 2.0 0.00 0.00 0.00 57 1015.1
20260503012355 45 192 1.0 1.0 0.00 0.00 0.00 55 1015.1
20260503011851 45 192 1.0 1.0 0.00 0.00 0.00 55 1014.9
20260503011348 45 192 4.0 4.0 0.00 0.00 0.00 54 1014.9
20260503010844 45 235 0.0 1.0 0.00 0.00 0.00 53 1014.9
20260503010342 46 316 7.0 9.0 0.00 0.00 0.00 52 1014.6
20260503005838 46 318 6.0 8.0 0.00 0.00 0.00 52 1014.4
20260503005336 46 315 5.0 7.0 0.00 0.00 0.00 51 1014.5
20260503004827 46 315 5.0 7.0 0.00 0.00 0.00 51 1014.3
20260503004325 46 38 0.0 1.0 0.00 0.00 0.00 52 1014.4
20260503003822 46 319 2.0 3.0 0.00 0.00 0.00 50 1014.4
20260503003319 46 29 3.0 4.0 0.00 0.00 0.00 51 1014.1
20260503002816 46 223 2.0 2.0 0.00 0.00 0.00 50 1014.1
20260503002313 46 95 1.0 2.0 0.00 0.00 0.00 48 1014.0
20260503001809 46 95 1.0 2.0 0.00 0.00 0.00 48 1013.8
20260503001305 47 15 6.0 8.0 0.00 0.00 0.00 47 1014.0
20260503000803 47 315 8.0 10.0 0.00 0.00 0.00 48 1013.7
20260503000300 46 343 7.0 10.0 0.00 0.00 0.00 48 1013.8
20260502235757 47 49 5.0 7.0 0.00 0.00 0.00 47 1013.7
20260502235255 47 346 6.0 11.0 0.00 0.00 0.00 46 1013.5
20260502234750 47 348 4.0 4.0 0.00 0.00 0.00 45 1013.4
20260502234242 47 312 5.0 8.0 0.00 0.00 0.00 44 1013.6
20260502233738 47 345 2.0 2.0 0.00 0.00 0.00 47 1013.2
20260502233235 47 342 7.0 9.0 0.00 0.00 0.00 45 1013.4
20260502232730 47 307 2.0 2.0 0.00 0.00 0.00 46 1013.2
20260502232228 48 321 6.0 8.0 0.00 0.00 0.00 43 1013.2
20260502231724 48 321 6.0 8.0 0.00 0.00 0.00 43 1013.4
20260502231222 48 345 3.0 6.0 0.00 0.00 0.00 45 1013.4
20260502230721 48 192 2.0 4.0 0.00 0.00 0.00 45 1013.2
20260502230219 48 336 5.0 6.0 0.00 0.00 0.00 45 1013.3
20260502225714 48 289 4.0 4.0 0.00 0.00 0.00 45 1013.2
20260502225211 48 310 6.0 8.0 0.00 0.00 0.00 43 1013.3
20260502224707 49 338 6.0 7.0 0.00 0.00 0.00 45 1013.2
20260502224205 48 336 6.0 7.0 0.00 0.00 0.00 44 1013.3
20260502223702 0 0.0 0.0 0.00 0.00 0.00 1013.1
20260502223200 0 0.0 0.0 0.00 0.00 0.00 1013.2
20260502222658 0 0.0 0.0 0.00 0.00 0.00 1013.4
20260502222154 49 285 2.0 2.0 0.00 0.00 0.00 46 1013.2
20260502221649 49 285 2.0 2.0 0.00 0.00 0.00 46 1013.1
20260502221147 50 281 2.0 3.0 0.00 0.00 0.00 44 1013.1
20260502220643 50 355 1.0 1.0 0.00 0.00 0.00 46 1013.0
20260502220139 49 158 1.0 2.0 0.00 0.00 0.00 49 1013.0
20260502215637 49 297 6.0 8.0 0.00 0.00 0.00 45 1013.0
20260502215133 0 0.0 0.0 0.00 0.00 0.00 1012.9
20260502214631 50 348 4.0 6.0 0.00 0.00 0.00 44 1013.0
20260502214127 50 333 8.0 9.0 0.00 0.00 0.00 46 1013.2
20260502213625 50 241 1.0 1.0 0.00 0.00 0.00 44 1013.1
20260502213122 50 326 2.0 3.0 0.00 0.00 0.00 48 1013.1
20260502212621 50 326 2.0 3.0 0.00 0.00 0.00 48 1013.1
20260502212114 50 316 5.0 7.0 0.00 0.00 0.00 43 1013.2
20260502211609 50 318 4.0 6.0 0.00 0.00 0.00 45 1013.1
20260502211106 50 349 8.0 11.0 0.00 0.00 0.00 42 1013.2
20260502210603 51 307 9.0 10.0 0.00 0.00 0.00 45 1013.0
20260502210059 52 323 7.0 9.0 0.00 0.00 0.00 42 1012.9
20260502205556 51 310 6.0 7.0 0.00 0.00 0.00 49 1013.1
20260502205054 52 321 2.0 4.0 0.00 0.00 0.00 44 1013.0
20260502204550 51 136 1.0 1.0 0.00 0.00 0.00 46 1012.9
20260502204048 51 280 1.0 1.0 0.00 0.00 0.00 50 1013.1
20260502203544 50 306 5.0 9.0 0.00 0.00 0.00 47 1013.3
20260502203042 50 320 8.0 9.0 0.00 0.00 0.00 44 1013.1
20260502202538 50 297 4.0 6.0 0.00 0.00 0.00 46 1013.3
20260502202036 50 242 1.0 3.0 0.00 0.00 0.00 46 1013.2
20260502201531 51 282 8.0 13.0 0.00 0.00 0.00 46 1013.1
20260502201029 51 235 2.0 3.0 0.00 0.00 0.00 44 1013.1
20260502200524 51 169 4.0 9.0 0.00 0.00 0.00 45 1013.2
20260502200022 50 347 9.0 16.0 0.00 0.00 0.00 46 1013.2
20260502195520 51 284 4.0 10.0 0.00 0.00 0.00 45 1013.2
20260502195016 51 217 2.0 2.0 0.00 0.00 0.00 53 1013.1
20260502194513 50 280 2.0 3.0 0.00 0.00 0.00 47 1013.3
20260502194009 51 330 4.0 6.0 0.00 0.00 0.00 43 1013.4
20260502193506 51 303 2.0 2.0 0.00 0.00 0.00 44 1013.5
20260502193001 51 320 7.0 11.0 0.00 0.00 0.00 47 1013.5
20260502192458 50 303 8.0 10.0 0.00 0.00 0.00 49 1013.6
20260502191955 50 308 6.0 8.0 0.00 0.00 0.00 49 1013.4
20260502191452 50 308 6.0 8.0 0.00 0.00 0.00 49 1013.7
20260502190950 51 319 7.0 11.0 0.00 0.00 0.00 49 1013.7
20260502190447 51 300 2.0 6.0 0.00 0.00 0.00 51 1013.6
20260502185943 50 255 2.0 2.0 0.00 0.00 0.00 51 1013.8
20260502185439 50 255 2.0 4.0 0.00 0.00 0.00 51 1013.8
20260502184936 50 330 6.0 9.0 0.00 0.00 0.00 51 1014.1
20260502184431 51 24 3.0 4.0 0.00 0.00 0.00 46 1014.0
20260502183928 50 65 2.0 3.0 0.00 0.00 0.00 52 1014.0
20260502183425 50 353 8.0 13.0 0.00 0.00 0.00 50 1014.0
20260502182920 50 20 4.0 6.0 0.00 0.00 0.00 47 1013.9
20260502182415 51 12 2.0 3.0 0.00 0.00 0.00 47 1014.0
20260502181912 52 332 0.0 3.0 0.00 0.00 0.00 50 1014.2
20260502181411 52 265 2.0 3.0 0.00 0.00 0.00 46 1014.2
20260502180909 50 59 4.0 4.0 0.00 0.00 0.00 55 1014.5
20260502180406 50 37 1.0 3.0 0.00 0.00 0.00 48 1014.5